Overview Statistics Trail Chart Weather Telemetry Raw packets
 

This is the latest recevied weather packets stored in our database for station/object KO4ZGL-13. If no packets are shown the sender has not sent any weather packets the latest 10 day(s).

<< 81 82 83 84 85 86 87 >>
Time Temp. Humidity Pressure Rain* Wind** Luminosity Snow
1788048180 25° C 99% 1019.8 hPa 0 mm - 0 W/m² -
1788047877 25° C 99% 1020 hPa 0 mm - 0 W/m² -
1788047573 25° C 99% 1020.1 hPa 0 mm - 0 W/m² -
1788047272 25° C 99% 1020.1 hPa 0 mm - 0 W/m² -
1788046967 25.56° C 99% 1020 hPa 0 mm - 2 W/m² -
1788046666 25.56° C 99% 1020 hPa 0 mm - 3 W/m² -
1788046362 25.56° C 99% 1019.9 hPa 0 mm - 5 W/m² -
1788046059 25.56° C 99% 1020.1 hPa 0 mm - 8 W/m² -
1788045755 25.56° C 99% 1019.8 hPa 0 mm - 10 W/m² -
1788045450 25.56° C 99% 1020 hPa 0 mm - 12 W/m² -
1788045146 25.56° C 99% 1019.9 hPa 0 mm - 15 W/m² -
1788044845 25.56° C 99% 1020 hPa 0 mm - 13 W/m² -
1788044539 25.56° C 99% 1020.1 hPa 0 mm - 12 W/m² -
1788044238 25.56° C 99% 1020.2 hPa 0 mm - 11 W/m² -
1788043935 25.56° C 99% 1020.4 hPa 0 mm - 14 W/m² -
1788043630 25.56° C 99% 1020.4 hPa 0 mm - 22 W/m² -
1788043325 26.11° C 99% 1020.1 hPa 0 mm - 32 W/m² -
1788043019 25.56° C 99% 1020.4 hPa 0 mm - 42 W/m² -
1788042715 25.56° C 99% 1020.3 hPa 0 mm - 55 W/m² -
1788042414 25.56° C 99% 1020.1 hPa 0 mm - 61 W/m² -
1788042108 26.11° C 99% 1020 hPa 0 mm - 61 W/m² -
1788041803 26.11° C 99% 1019.8 hPa 0 mm - 68 W/m² -
1788041499 25.56° C 99% 1019.9 hPa 0 mm - 79 W/m² -
1788041194 26.11° C 99% 1019.9 hPa 0 mm - 82 W/m² -
1788040893 26.11° C 98% 1020.2 hPa 0 mm - 80 W/m² -

* Rain latest hour (hover to see other rain measurements)
** Current wind speed in m/s (hover to see current wind gust speed)